{"data":{"norad_id":51138,"epoch":"2026-05-25T03:57:29.733408Z","epoch_age_seconds":63823,"freshness":"FRESH","line1":"1 51138U 22005AL  26145.16492747  .00000516  00000+0  50502-4 0  9992","line2":"2 51138  53.2132 315.8089 0001098  80.7607 279.3509 15.08836384240272","mean_motion":15.08836384,"eccentricity":0.0001098,"inclination_deg":53.2132,"raan_deg":315.8089,"arg_perigee_deg":80.7607,"mean_anomaly_deg":279.3509,"bstar":5.0502e-5,"rev_number":24027,"period_min":95.437783398521,"perigee_km":538.99485717128,"apogee_km":540.51402613187,"semimajor_km":6917.8914416516,"source":"CELESTRAK","updated_at":"2026-05-25T13:38:16.913859Z"}}